星链-4703 (STARLINK-4703 )

导读 | 星芒AI

STARLINK-4703 是 SpaceX Starlink 卫星互联网项目中的一颗低轨卫星,属于第 18 批次发射的星链卫星群。该卫星用于提供全球高速互联网服务,尤其在偏远和网络覆盖不足的地区。它运行在约 550 公里的轨道高度,采用先进的通信技术,支持高速数据传输和低延迟连接。STARLINK-4703 与其它星链卫星协同工作,构建起一个覆盖全球的卫星通信网络,为用户提供稳定、高效的网络服务。

基本信息
目录编号:
53855
目录名称:
STARLINK-4703
国际标识:
2022-114AP
轨道中心:
EARTH
卫星名称:
星链-4703
卫星全名:
星链-4703 (STARLINK-4703 )
卫星状态:
在轨 (已飞行1143 天)
发射日期:
2022-09-19 UTC
国别 :
美国 (US)
星等 :
--
轨道信息
数据来源 国际轨道数据
星历时间: 2025-11-05T03:36:06+0800
4小时前
查看轨道信息
半长轴: 6917.898km
偏心率: 0.0001411
轨道倾角: 53.215°
近地点辐角 91.859°
升交点赤经 134.440°
平近点角 268.257°
近地点: 538.786km
远地点: 540.74km
周期: 95.438分钟
每日圈数: 15.088345
详细信息
固有亮度:
5
最大亮度:
2.5
卫星平台:
Starlink v1.5
覆盖范围:
全球
运营商:
太空探索技术公司
运营商所在国:
美国
制造商(研发单位):
太空探索技术公司
制造商所在国:
美国
使用方式:
暂无
卫星简介
星链(Starlink)计划是由太空探索技术公司(SpaceX)提出的一个巨型低轨卫星互联网星座项目,计划在2019年至2024年间在太空搭建由约1.2万颗卫星组成的“星链”网络,其中1584颗将部署在地球上空550千米处的近地轨道,并从2020年开始工作。该卫星仍在工作。
2D轨道图
3D轨道图
轨道高度分析图
轨道倾角分析图
轨道综合分析图
查看轨道综合分析图